EN

Hourly Weather Bolshoe Savino

Today, 22 October, Thursday

Time Temperature Precipitation Wind Pressure Humidity
00:00 +3°C° 0 mm 1 mps 749 mmHg 97%
01:00 +2°C° 0 mm 2 mps 749 mmHg 97%
02:00 +2°C° 0 mm 2 mps 749 mmHg 97%
03:00 +2°C° 0 mm 2 mps 749 mmHg 97%
04:00 +2°C° 0 mm 2 mps 749 mmHg 97%
05:00 +2°C° 0 mm 2 mps 749 mmHg 97%
06:00 +2°C° 0 mm 2 mps 749 mmHg 96%
07:00 +2°C° 0 mm 2 mps 748 mmHg 95%
08:00 +3°C° 0 mm 2 mps 748 mmHg 94%
09:00 +2°C° 0 mm 3 mps 748 mmHg 92%
10:00 +3°C° 0 mm 3 mps 748 mmHg 90%
11:00 +3°C° 0 mm 4 mps 747 mmHg 88%
12:00 +4°C° 0 mm 4 mps 747 mmHg 88%
13:00 +4°C° 0 mm 4 mps 746 mmHg 88%
14:00 +3°C° 0 mm 5 mps 745 mmHg 88%
15:00 +3°C° 0.7 mm 5 mps 744 mmHg 90%
16:00 +3°C° 0.7 mm 5 mps 743 mmHg 92%
17:00 +3°C° 0.7 mm 5 mps 742 mmHg 94%
18:00 +5°C° 0.7 mm 5 mps 741 mmHg 95%
19:00 +5°C° 0.7 mm 5 mps 741 mmHg 95%
20:00 +5°C° 0.7 mm 5 mps 740 mmHg 95%
21:00 +6°C° 0.9 mm 5 mps 739 mmHg 95%
22:00 +6°C° 0.9 mm 5 mps 738 mmHg 95%
23:00 +6°C° 0.9 mm 5 mps 737 mmHg 96%

Tomorrow, 23 October, Friday

Time Temperature Precipitation Wind Pressure Humidity
00:00 +6°C° 1 mm 4 mps 737 mmHg 96%
01:00 +7°C° 1 mm 4 mps 736 mmHg 96%
02:00 +7°C° 1 mm 4 mps 736 mmHg 96%
03:00 +8°C° 0.8 mm 5 mps 736 mmHg 95%
04:00 +9°C° 0.8 mm 5 mps 736 mmHg 93%
05:00 +10°C° 0.8 mm 6 mps 735 mmHg 91%
06:00 +10°C° 0.1 mm 6 mps 736 mmHg 88%
07:00 +9°C° 0.1 mm 6 mps 736 mmHg 84%
08:00 +9°C° 0.1 mm 6 mps 736 mmHg 80%
09:00 +10°C° 0.1 mm 6 mps 737 mmHg 82%
10:00 +10°C° 0.1 mm 5 mps 737 mmHg 84%
11:00 +10°C° 0.1 mm 5 mps 738 mmHg 86%
12:00 +10°C° 0 mm 5 mps 738 mmHg 83%
13:00 +10°C° 0 mm 5 mps 738 mmHg 79%
14:00 +11°C° 0 mm 6 mps 738 mmHg 75%
15:00 +10°C° 0 mm 5 mps 738 mmHg 78%
16:00 +10°C° 0 mm 5 mps 737 mmHg 81%
17:00 +10°C° 0 mm 4 mps 737 mmHg 85%
18:00 +10°C° 0.2 mm 4 mps 737 mmHg 87%
19:00 +10°C° 0.2 mm 4 mps 736 mmHg 88%
20:00 +9°C° 0.2 mm 5 mps 736 mmHg 90%
21:00 +8°C° 1.2 mm 4 mps 736 mmHg 91%
22:00 +8°C° 1.2 mm 4 mps 736 mmHg 92%
23:00 +8°C° 1.2 mm 4 mps 736 mmHg 93%

Day after tomorrow, 24 October, Saturday

Time Temperature Precipitation Wind Pressure Humidity
00:00 +8°C° 0.2 mm 4 mps 736 mmHg 91%
01:00 +8°C° 0.2 mm 4 mps 737 mmHg 90%
02:00 +7°C° 0.2 mm 5 mps 737 mmHg 88%
03:00 +7°C° 0 mm 5 mps 737 mmHg 87%
04:00 +8°C° 0 mm 5 mps 738 mmHg 85%
05:00 +8°C° 0 mm 5 mps 738 mmHg 84%
06:00 +7°C° 0 mm 4 mps 739 mmHg 85%
07:00 +7°C° 0 mm 4 mps 740 mmHg 86%
08:00 +7°C° 0 mm 4 mps 740 mmHg 87%
09:00 +8°C° 0 mm 3 mps 741 mmHg 84%
10:00 +9°C° 0 mm 3 mps 741 mmHg 81%
11:00 +9°C° 0 mm 3 mps 741 mmHg 77%
12:00 +9°C° 0.1 mm 3 mps 742 mmHg 77%
13:00 +9°C° 0.1 mm 3 mps 742 mmHg 77%
14:00 +9°C° 0.1 mm 3 mps 742 mmHg 77%
15:00 +8°C° 0 mm 3 mps 742 mmHg 80%
16:00 +7°C° 0 mm 3 mps 742 mmHg 84%
17:00 +6°C° 0 mm 2 mps 742 mmHg 87%
18:00 +6°C° 0 mm 2 mps 742 mmHg 89%
19:00 +6°C° 0 mm 2 mps 742 mmHg 90%
20:00 +7°C° 0 mm 1 mps 743 mmHg 91%
21:00 +6°C° 0 mm 1 mps 743 mmHg 92%
22:00 +6°C° 0 mm 1 mps 742 mmHg 92%
23:00 +5°C° 0 mm 1 mps 742 mmHg 93%

, 25 October, Sunday

Time Temperature Precipitation Wind Pressure Humidity
00:00 +5°C° 0 mm 1 mps 742 mmHg 92%
01:00 +5°C° 0 mm 1 mps 742 mmHg 92%
02:00 +5°C° 0 mm 1 mps 742 mmHg 92%
03:00 +6°C° 0.1 mm 1 mps 742 mmHg 92%
04:00 +6°C° 0.1 mm 1 mps 742 mmHg 92%
05:00 +6°C° 0.1 mm 1 mps 742 mmHg 93%
06:00 +6°C° 0.1 mm 1 mps 742 mmHg 93%
07:00 +5°C° 0.1 mm 0 mps 742 mmHg 93%
08:00 +6°C° 0.1 mm 0 mps 742 mmHg 93%
09:00 +6°C° 0 mm 0 mps 743 mmHg 91%
10:00 +7°C° 0 mm 0 mps 743 mmHg 89%
11:00 +7°C° 0 mm 0 mps 743 mmHg 86%
12:00 +7°C° 0 mm 0 mps 744 mmHg 85%
13:00 +8°C° 0 mm 0 mps 744 mmHg 85%
14:00 +8°C° 0 mm 0 mps 744 mmHg 84%
15:00 +7°C° 0 mm 0 mps 745 mmHg 86%
16:00 +7°C° 0 mm 0 mps 745 mmHg 89%
17:00 +6°C° 0 mm 0 mps 746 mmHg 91%
18:00 +7°C° 0.1 mm 1 mps 746 mmHg 92%
19:00 +7°C° 0.1 mm 1 mps 747 mmHg 93%
20:00 +7°C° 0.1 mm 1 mps 747 mmHg 93%
21:00 +7°C° 0.1 mm 1 mps 748 mmHg 94%
22:00 +6°C° 0.1 mm 2 mps 748 mmHg 94%
23:00 +6°C° 0.1 mm 2 mps 749 mmHg 95%

25 October, Sunday

Time Temperature Precipitation Wind Pressure Humidity
00:00 +5°C° 0 mm 1 mps 742 mmHg 92%
01:00 +5°C° 0 mm 1 mps 742 mmHg 92%
02:00 +5°C° 0 mm 1 mps 742 mmHg 92%
03:00 +6°C° 0.1 mm 1 mps 742 mmHg 92%
04:00 +6°C° 0.1 mm 1 mps 742 mmHg 92%
05:00 +6°C° 0.1 mm 1 mps 742 mmHg 93%
06:00 +6°C° 0.1 mm 1 mps 742 mmHg 93%
07:00 +5°C° 0.1 mm 0 mps 742 mmHg 93%
08:00 +6°C° 0.1 mm 0 mps 742 mmHg 93%
09:00 +6°C° 0 mm 0 mps 743 mmHg 91%
10:00 +7°C° 0 mm 0 mps 743 mmHg 89%
11:00 +7°C° 0 mm 0 mps 743 mmHg 86%
12:00 +7°C° 0 mm 0 mps 744 mmHg 85%
13:00 +8°C° 0 mm 0 mps 744 mmHg 85%
14:00 +8°C° 0 mm 0 mps 744 mmHg 84%
15:00 +7°C° 0 mm 0 mps 745 mmHg 86%
16:00 +7°C° 0 mm 0 mps 745 mmHg 89%
17:00 +6°C° 0 mm 0 mps 746 mmHg 91%
18:00 +7°C° 0.1 mm 1 mps 746 mmHg 92%
19:00 +7°C° 0.1 mm 1 mps 747 mmHg 93%
20:00 +7°C° 0.1 mm 1 mps 747 mmHg 93%
21:00 +7°C° 0.1 mm 1 mps 748 mmHg 94%
22:00 +6°C° 0.1 mm 2 mps 748 mmHg 94%
23:00 +6°C° 0.1 mm 2 mps 749 mmHg 95%

26 October, Monday

Time Temperature Precipitation Wind Pressure Humidity
00:00 +6°C° 0 mm 2 mps 749 mmHg 94%
01:00 +6°C° 0 mm 2 mps 750 mmHg 93%
02:00 +5°C° 0 mm 3 mps 750 mmHg 93%
03:00 +6°C° 0 mm 2 mps 751 mmHg 93%
04:00 +5°C° 0 mm 2 mps 751 mmHg 93%
05:00 +5°C° 0 mm 2 mps 752 mmHg 93%
06:00 +4°C° 0 mm 2 mps 752 mmHg 93%
07:00 +4°C° 0 mm 2 mps 753 mmHg 93%
08:00 +5°C° 0 mm 1 mps 753 mmHg 93%
09:00 +6°C° 0 mm 1 mps 753 mmHg 87%
10:00 +6°C° 0 mm 1 mps 754 mmHg 81%
11:00 +7°C° 0 mm 1 mps 754 mmHg 75%
12:00 +8°C° 0 mm 1 mps 754 mmHg 73%
13:00 +8°C° 0 mm 1 mps 754 mmHg 71%
14:00 +8°C° 0 mm 1 mps 755 mmHg 69%
15:00 +7°C° 0 mm 1 mps 755 mmHg 74%
16:00 +6°C° 0 mm 1 mps 755 mmHg 80%
17:00 +5°C° 0 mm 1 mps 755 mmHg 85%
18:00 +5°C° 0 mm 1 mps 755 mmHg 87%
19:00 +5°C° 0 mm 1 mps 755 mmHg 89%
20:00 +4°C° 0 mm 1 mps 755 mmHg 91%
21:00 +4°C° 0 mm 1 mps 755 mmHg 92%
22:00 +3°C° 0 mm 2 mps 755 mmHg 93%
23:00 +3°C° 0 mm 2 mps 755 mmHg 93%

27 October, Tuesday

Time Temperature Precipitation Wind Pressure Humidity
00:00 +3°C° 0 mm 2 mps 755 mmHg 94%
01:00 +3°C° 0 mm 2 mps 755 mmHg 94%
02:00 +2°C° 0 mm 2 mps 755 mmHg 95%
03:00 +2°C° 0 mm 2 mps 755 mmHg 95%
04:00 +2°C° 0 mm 2 mps 755 mmHg 95%
05:00 +2°C° 0 mm 2 mps 755 mmHg 95%
06:00 +2°C° 0 mm 2 mps 755 mmHg 94%
07:00 +3°C° 0 mm 2 mps 755 mmHg 93%
08:00 +2°C° 0 mm 3 mps 755 mmHg 93%
09:00 +3°C° 0 mm 3 mps 755 mmHg 88%
10:00 +4°C° 0 mm 3 mps 755 mmHg 84%
11:00 +7°C° 0 mm 3 mps 755 mmHg 80%
12:00 +7°C° 0 mm 3 mps 755 mmHg 79%
13:00 +7°C° 0 mm 3 mps 755 mmHg 79%
14:00 +7°C° 0 mm 4 mps 755 mmHg 79%
15:00 +7°C° 0 mm 3 mps 754 mmHg 83%
16:00 +5°C° 0 mm 3 mps 754 mmHg 87%
17:00 +4°C° 0 mm 3 mps 754 mmHg 92%
18:00 +4°C° 0 mm 3 mps 754 mmHg 92%
19:00 +4°C° 0 mm 3 mps 754 mmHg 92%
20:00 +4°C° 0 mm 3 mps 753 mmHg 93%
21:00 +5°C° 0 mm 4 mps 753 mmHg 92%
22:00 +5°C° 0 mm 4 mps 753 mmHg 91%
23:00 +5°C° 0 mm 4 mps 753 mmHg 91%
Show more